TimeCST,TemperatureF,Dew PointF,Humidity,Sea Level PressureIn,VisibilityMPH,Wind Direction,Wind SpeedMPH,Gust SpeedMPH,PrecipitationIn,Events,Conditions,WindDirDegrees,DateUTC
12:15 AM,32.0,25.0,75,30.16,10.0,WNW,9.2,-,N/A,,Overcast,290,2013-01-03 06:15:00
12:35 AM,32.0,25.3,76,30.16,10.0,WNW,11.5,-,N/A,,Overcast,290,2013-01-03 06:35:00
12:55 AM,32.0,25.3,76,30.16,10.0,WNW,11.5,-,N/A,,Overcast,290,2013-01-03 06:55:00
1:15 AM,32.0,25.2,76,30.16,10.0,WNW,11.5,18.4,N/A,,Overcast,300,2013-01-03 07:15:00
1:35 AM,32.0,25.2,76,30.16,10.0,WNW,12.7,17.3,N/A,,Overcast,300,2013-01-03 07:35:00
1:55 AM,32.0,25.2,76,30.17,10.0,WNW,10.4,-,N/A,,Overcast,300,2013-01-03 07:55:00
2:15 AM,32.0,24.8,75,30.18,10.0,NW,9.2,-,N/A,,Overcast,320,2013-01-03 08:15:00
2:35 AM,30.9,22.8,72,30.19,10.0,NNW,12.7,19.6,N/A,,Overcast,330,2013-01-03 08:35:00
2:55 AM,29.8,22.3,73,30.20,10.0,NNW,12.7,18.4,N/A,,Overcast,330,2013-01-03 08:55:00
3:15 AM,27.3,19.9,74,30.21,10.0,North,12.7,-,N/A,,Overcast,350,2013-01-03 09:15:00
3:35 AM,26.4,17.6,69,30.21,10.0,NNW,18.4,23.0,N/A,,Overcast,330,2013-01-03 09:35:00
3:55 AM,24.1,14.5,67,30.23,10.0,NNW,16.1,21.9,N/A,,Overcast,340,2013-01-03 09:55:00
4:15 AM,22.6,12.6,65,30.23,10.0,NNW,16.1,-,N/A,,Overcast,340,2013-01-03 10:15:00
4:35 AM,19.4,8.2,62,30.24,10.0,NNW,13.8,23.0,N/A,,Mostly Cloudy,330,2013-01-03 10:35:00
4:55 AM,17.6,6.8,63,30.25,10.0,NNW,12.7,-,N/A,,Clear,330,2013-01-03 10:55:00
5:15 AM,16.3,5.9,64,30.26,10.0,NNW,12.7,23.0,N/A,,Clear,330,2013-01-03 11:15:00
5:35 AM,15.1,5.0,64,30.27,10.0,NNW,9.2,17.3,N/A,,Clear,330,2013-01-03 11:35:00
6:15 AM,13.8,4.1,65,30.28,10.0,NNW,9.2,17.3,N/A,,Clear,330,2013-01-03 12:15:00
6:35 AM,13.1,3.7,66,30.29,10.0,NNW,12.7,18.4,N/A,,Clear,330,2013-01-03 12:35:00
6:55 AM,12.2,3.2,67,30.30,10.0,NW,8.1,-,N/A,,Clear,320,2013-01-03 12:55:00
7:15 AM,11.8,2.5,66,30.31,10.0,NNW,6.9,16.1,N/A,,Clear,330,2013-01-03 13:15:00
7:35 AM,11.1,2.3,68,30.32,10.0,NNW,3.5,-,N/A,,Clear,330,2013-01-03 13:35:00
7:55 AM,10.9,2.1,68,30.32,10.0,NW,5.8,-,N/A,,Clear,310,2013-01-03 13:55:00
8:15 AM,10.8,1.9,68,30.32,10.0,NW,5.8,-,N/A,,Clear,310,2013-01-03 14:15:00
8:35 AM,11.3,2.1,67,30.33,10.0,NW,9.2,-,N/A,,Clear,310,2013-01-03 14:35:00
8:55 AM,11.8,2.1,65,30.34,10.0,NW,5.8,-,N/A,,Clear,310,2013-01-03 14:55:00
9:15 AM,12.6,2.7,65,30.34,10.0,WNW,8.1,-,N/A,,Clear,290,2013-01-03 15:15:00
9:35 AM,13.1,3.0,64,30.36,10.0,WNW,4.6,-,N/A,,Clear,300,2013-01-03 15:35:00
9:55 AM,14.0,3.4,63,30.36,10.0,NW,10.4,-,N/A,,Clear,310,2013-01-03 15:55:00
10:15 AM,14.4,3.2,61,30.37,10.0,NW,6.9,-,N/A,,Clear,310,2013-01-03 16:15:00
10:35 AM,14.9,3.7,61,30.38,10.0,WNW,8.1,-,N/A,,Clear,300,2013-01-03 16:35:00
10:55 AM,15.3,3.7,60,30.37,10.0,NNW,4.6,-,N/A,,Clear,340,2013-01-03 16:55:00
11:15 AM,15.8,4.1,60,30.37,10.0,NW,4.6,-,N/A,,Clear,310,2013-01-03 17:15:00
11:35 AM,16.9,5.7,62,30.36,10.0,NW,8.1,-,N/A,,Clear,320,2013-01-03 17:35:00
11:55 AM,18.0,7.0,62,30.35,10.0,NW,11.5,16.1,N/A,,Scattered Clouds,320,2013-01-03 17:55:00
12:15 PM,18.1,7.9,64,30.35,7.0,NNW,8.1,17.3,N/A,,Mostly Cloudy,330,2013-01-03 18:15:00
12:35 PM,18.7,8.6,65,30.34,10.0,NW,6.9,-,N/A,Snow,Light Snow,310,2013-01-03 18:35:00
12:55 PM,19.2,9.1,65,30.33,5.0,WNW,8.1,-,N/A,Snow,Light Snow,290,2013-01-03 18:55:00
1:15 PM,19.4,9.5,65,30.33,5.0,WNW,8.1,-,N/A,Snow,Light Snow,290,2013-01-03 19:15:00
1:35 PM,19.4,9.5,65,30.31,4.0,WNW,5.8,-,N/A,Snow,Light Snow,300,2013-01-03 19:35:00
1:55 PM,20.3,9.7,64,30.31,5.0,NW,5.8,-,N/A,Snow,Light Snow,320,2013-01-03 19:55:00
2:15 PM,20.7,10.6,65,30.31,7.0,WNW,5.8,-,N/A,Snow,Light Snow,300,2013-01-03 20:15:00
2:35 PM,21.2,11.1,65,30.30,10.0,WNW,5.8,-,N/A,Snow,Light Snow,290,2013-01-03 20:35:00
2:55 PM,21.6,12.0,67,30.30,10.0,WNW,6.9,-,N/A,Snow,Light Snow,290,2013-01-03 20:55:00
3:55 PM,21.6,12.2,67,30.31,10.0,WSW,6.9,-,N/A,,Scattered Clouds,250,2013-01-03 21:55:00
4:15 PM,21.2,12.2,68,30.32,10.0,WSW,5.8,-,N/A,,Overcast,250,2013-01-03 22:15:00
4:35 PM,21.0,12.6,70,30.32,10.0,WSW,4.6,-,N/A,,Overcast,240,2013-01-03 22:35:00
4:55 PM,21.2,12.9,70,30.32,10.0,SW,4.6,-,N/A,,Overcast,230,2013-01-03 22:55:00
5:15 PM,21.6,13.1,70,30.32,10.0,SSW,4.6,-,N/A,,Overcast,210,2013-01-03 23:15:00
5:35 PM,21.9,13.6,70,30.31,10.0,SW,5.8,-,N/A,,Overcast,220,2013-01-03 23:35:00
5:55 PM,21.4,13.6,72,30.31,10.0,SW,5.8,-,N/A,,Overcast,220,2013-01-03 23:55:00
6:15 PM,21.2,13.6,73,30.31,10.0,SW,6.9,-,N/A,,Overcast,220,2013-01-04 00:15:00
6:35 PM,20.1,12.7,73,30.30,10.0,SSW,6.9,-,N/A,,Scattered Clouds,210,2013-01-04 00:35:00
6:55 PM,19.4,12.7,75,30.30,10.0,SSW,8.1,-,N/A,,Clear,210,2013-01-04 00:55:00
7:15 PM,19.2,12.4,75,30.29,10.0,SSW,9.2,-,N/A,,Clear,210,2013-01-04 01:15:00
7:35 PM,18.9,12.2,75,30.29,10.0,SSW,8.1,-,N/A,,Clear,210,2013-01-04 01:35:00
7:55 PM,18.0,11.3,75,30.29,10.0,SW,6.9,-,N/A,,Clear,220,2013-01-04 01:55:00
8:15 PM,17.6,11.3,76,30.28,10.0,SW,4.6,-,N/A,,Clear,220,2013-01-04 02:15:00
8:35 PM,15.8,10.2,79,30.28,10.0,SW,5.8,-,N/A,,Clear,220,2013-01-04 02:35:00
8:55 PM,15.8,10.4,79,30.27,10.0,SSW,3.5,-,N/A,,Clear,200,2013-01-04 02:55:00
9:15 PM,14.9,10.0,81,30.26,10.0,South,4.6,-,N/A,,Clear,190,2013-01-04 03:15:00
9:35 PM,15.6,10.6,80,30.26,10.0,Calm,Calm,-,N/A,,Clear,0,2013-01-04 03:35:00
9:55 PM,15.8,10.8,80,30.25,10.0,South,3.5,-,N/A,,Clear,190,2013-01-04 03:55:00
10:15 PM,15.1,10.0,80,30.25,10.0,SSW,4.6,-,N/A,,Clear,200,2013-01-04 04:15:00
10:35 PM,14.7,9.9,81,30.24,10.0,SSW,4.6,-,N/A,,Clear,210,2013-01-04 04:35:00
10:55 PM,16.2,11.1,81,30.24,10.0,SSW,5.8,-,N/A,,Clear,200,2013-01-04 04:55:00
11:15 PM,17.2,11.3,78,30.23,10.0,South,8.1,-,N/A,,Clear,190,2013-01-04 05:15:00
11:35 PM,17.2,11.3,78,30.23,10.0,SSW,8.1,-,N/A,,Clear,210,2013-01-04 05:35:00
11:55 PM,17.8,11.7,77,30.22,10.0,SSW,10.4,-,N/A,,Clear,200,2013-01-04 05:55:00